Вернуться в каталог

METEOR 2-8 DEB

АктивенPO
NORAD 36323·DEBRIS·🇷🇺 Russia

Запущен Mar 25, 1982 с Plesetsk Cosmodrome

Loading…

Ближайшие Пролёты (ближайшие 24 часа)

TLE

СвежийSource: Space-Track

Эпоха: Sep 11, 2026, 10:07 UTC

1 36323U 82025H   26254.42206693  .00002977  00000-0  11779-2 0  9997
2 36323  82.5308 147.6081 0014268 159.7524 200.4230 14.28637466910857

Отслеживайте METEOR 2-8 DEB в реальном времени с AllMySat

Download on the App Store